Miscellaneous Local Product
Issued by NWS Hastings, NE

Home | Current Version | Previous Version | Text Only | Print | Product List | Glossary Off
Versions: 1 2 3 4 5 6 7 8 9 10 11 12 13 14 15 16 17 18 19 20 21 22 23 24 25 26 27 28 29 30 31 32 33 34 35 36 37 38 39 40 41 42 43 44 45 46 47 48 49 50

554
AXUS43 KGID 260202
MISGRI

GID CWA HOURLY WEATHER ROUNDUP
NATIONAL WEATHER SERVICE HASTINGS NE
900 PM CDT MON JUL 25 2016

NOTE: "FAIR" INDICATES FEW OR NO CLOUDS BELOW 12,000 FEET WITH NO
SIGNIFICANT WEATHER AND/OR OBSTRUCTIONS TO VISIBILITY.

...SOUTH CENTRAL NEBRASKA...

CITY           SKY/WX    TMP DP  RH WIND       PRES   REMARKS
GRAND ISLAND   CLEAR     76  65  68 SE5       30.09R
HASTINGS       CLEAR     77  63  61 E5        30.09R
KEARNEY        CLEAR     75  63  64 E8        30.10R
ORD            CLEAR     79  61  53 SE7       30.07R
YORK           CLEAR     75  63  64 SE7       30.08R
AURORA         CLEAR     74  67  77 SE6       30.08R
LEXINGTON      CLEAR     78  67  70 SE7       30.09R
HOLDREGE       CLEAR     77  66  69 SE5       30.09R
HEBRON         CLEAR     76  62  61 E5        30.06R

...NEBRASKA PANHANDLE...

CITY           SKY/WX    TMP DP  RH WIND       PRES   REMARKS
CHADRON        CLEAR     87  58  37 SE17      30.01R
ALLIANCE       CLEAR     79  61  53 SE14      30.08R
SCOTTSBLUFF    CLEAR     85  59  41 SE12      30.05R
SIDNEY         CLEAR     79  60  52 S17       30.13R

...WESTERN AND NORTH CENTRAL NEBRASKA...

CITY           SKY/WX    TMP DP  RH WIND       PRES   REMARKS
VALENTINE      CLEAR     81  59  47 S10       30.05R
AINSWORTH      CLEAR     78  59  53 SE8       30.08R
ONEILL         CLEAR     78  60  53 SE7       30.07S
BROKEN BOW     CLEAR     75  64  68 SE5       30.09R
IMPERIAL       CLOUDY    81  61  50 S9        30.10R
NORTH PLATTE   CLEAR     75  68  78 SE6       30.08R
MCCOOK         CLEAR     81  63  54 SE10      30.07R

...EASTERN NEBRASKA...

CITY           SKY/WX    TMP DP  RH WIND       PRES   REMARKS
NORFOLK        CLEAR     73  63  70 SE6       30.07R
SO SIOUX CITY  CLEAR     79  66  64 SE5       30.05R
TEKAMAH        CLEAR     77  69  76 S3        30.05R
COLUMBUS       CLEAR     77  59  53 SE5       30.08R
ALBION         CLEAR     74  65  73 SE5       30.08R
OMAHA EPPLEY   PTCLDY    81  70  69 E5        30.05R
OFFUTT AFB     CLEAR     76  69  79 E3        30.05S
MILLARD        CLEAR     81  66  60 E3        30.06R
LINCOLN        CLEAR     81  64  56 E6        30.07R
NEBRASKA CITY  CLEAR     77  65  67 E3        30.07R
BEATRICE       CLEAR     78  66  66 E3        30.07R
FALLS CITY     CLEAR     77  68  73 E3        30.04S

...NORTHERN KANSAS...

CITY           SKY/WX    TMP DP  RH WIND       PRES   REMARKS
GOODLAND       CLEAR     75  64  68 S7        30.11F
HILL CITY      CLEAR     79  66  64 SE7       30.07R
NORTON         CLEAR     79  57  47 E5        30.08R
SMITH CENTER   CLEAR     73  66  78 E7        30.07R
BELOIT         CLEAR     77  64  65 E6        30.04R
HAYS           CLEAR     79  63  57 SE7       30.06R
RUSSELL        CLEAR     78  64  61 E8        30.05R
CONCORDIA      CLEAR     73  66  78 SE3       30.06R
SALINA         CLEAR     81  68  64 E8        30.04R
TOPEKA           N/A     79  68  69 CALM      30.04R



USA.gov is the U.S. government's official web portal to all federal, state and local government web resources and services.